Location: Cabobito
(9.9667°N, 67.8000°W)
Time: 08:24:10
(UTC+00:00)

Cosmos 1656 - Pass Details

Date: 18 April 2024
Orbit: 795 x 849 km, 71.1° (Epoch: 27 April)

Event Time Altitude Azimuth Distance (km) Brightness Sun altitude
Rises 22:17:09 0° 116° (ESE) 3,387 6.2 5.1°
Reaches altitude 10° 23:56:32 10° 187° (S) 2,457 6.0 -18.7°
Maximum altitude 00:02:07 67° 105° (ESE) 899 3.5 -20.0°
Drops below altitude 10° 00:07:38 10° 23° (NNE) 2,423 6.0 -21.3°
Sets 00:10:04 0° 21° (NNE) 3,347 6.8 -21.9°
